| time (UTC) | temp C | wind direction | speed KPH | gust KPH | rain 1hr cm | rain 24hr cm | rain mn cm | humidity % | barometer mb |
| 20260906073143 | 29 | 0.0 | 0.0 | 0.00 | 0.00 | 0.00 | 61 | 1019.6 | |
| 20260906071139 | 29 | 0.0 | 0.0 | 0.00 | 0.00 | 0.00 | 62 | 1019.5 | |
| 20260906065136 | 28 | 0.0 | 0.0 | 0.00 | 0.00 | 0.00 | 62 | 1019.3 | |
| 20260906063132 | 28 | 0.0 | 0.0 | 0.00 | 0.00 | 0.00 | 62 | 1019.2 | |
| 20260906061129 | 28 | 0.0 | 0.0 | 0.00 | 0.00 | 0.00 | 62 | 1019.2 | |
| 20260906055125 | 28 | 0.0 | 0.0 | 0.00 | 0.00 | 0.00 | 63 | 1019.2 | |
| 20260906053122 | 28 | 0.0 | 0.0 | 0.00 | 0.00 | 0.00 | 63 | 1019.0 | |
| 20260906051119 | 27 | 0.0 | 0.0 | 0.00 | 0.00 | 0.00 | 63 | 1018.9 | |
| 20260906045115 | 27 | 0.0 | 0.0 | 0.00 | 0.00 | 0.00 | 63 | 1018.8 | |
| 20260906043112 | 27 | 0.0 | 0.0 | 0.00 | 0.00 | 0.00 | 63 | 1018.7 | |
| 20260906041108 | 27 | 0.0 | 0.0 | 0.00 | 0.00 | 0.00 | 63 | 1018.6 | |
| 20260906035105 | 27 | 0.0 | 0.0 | 0.00 | 0.00 | 0.00 | 63 | 1018.5 | |
| 20260906033101 | 27 | 0.0 | 0.0 | 0.00 | 0.00 | 0.00 | 63 | 1018.3 | |
| 20260906031058 | 27 | 0.0 | 0.0 | 0.00 | 0.00 | 0.00 | 63 | 1018.3 | |
| 20260906025054 | 27 | 0.0 | 0.0 | 0.00 | 0.00 | 0.00 | 62 | 1018.3 | |
| 20260906023051 | 28 | 0.0 | 0.0 | 0.00 | 0.00 | 0.00 | 62 | 1018.4 | |
| 20260906021047 | 28 | 0.0 | 0.0 | 0.00 | 0.00 | 0.00 | 62 | 1018.5 | |
| 20260906015044 | 28 | 0.0 | 0.0 | 0.00 | 0.00 | 0.00 | 62 | 1018.4 | |
| 20260906013040 | 28 | 0.0 | 0.0 | 0.00 | 0.00 | 0.00 | 62 | 1018.4 | |
| 20260906011036 | 28 | 0.0 | 0.0 | 0.00 | 0.00 | 0.00 | 61 | 1018.5 | |
| 20260906005032 | 28 | 0.0 | 0.0 | 0.00 | 0.00 | 0.00 | 61 | 1018.4 | |
| 20260906003028 | 28 | 0.0 | 0.0 | 0.00 | 0.00 | 0.00 | 61 | 1018.4 | |
| 20260906001024 | 28 | 0.0 | 0.0 | 0.00 | 0.00 | 0.00 | 60 | 1018.5 | |
| 20260905235020 | 28 | 0.0 | 0.0 | 0.00 | 0.00 | 0.00 | 60 | 1018.6 | |
| 20260905214958 | 28 | 0.0 | 0.0 | 0.00 | 0.00 | 0.00 | 56 | 1019.0 | |
| 20260905210951 | 29 | 0.0 | 0.0 | 0.00 | 0.00 | 0.00 | 55 | 1019.1 | |
| 20260905204947 | 29 | 0.0 | 0.0 | 0.00 | 0.00 | 0.00 | 55 | 1019.1 | |
| 20260905202944 | 29 | 0.0 | 0.0 | 0.00 | 0.00 | 0.00 | 55 | 1019.2 | |
| 20260905200941 | 29 | 0.0 | 0.0 | 0.00 | 0.00 | 0.00 | 55 | 1019.2 | |
| 20260905195744 | 29 | 0.0 | 0.0 | 0.00 | 0.00 | 0.00 | 55 | 1019.1 | |
| 20260905193741 | 29 | 0.0 | 0.0 | 0.00 | 0.00 | 0.00 | 54 | 1019.1 | |
| 20260905191738 | 29 | 0.0 | 0.0 | 0.00 | 0.00 | 0.00 | 53 | 1019.0 | |
| 20260905185734 | 30 | 0.0 | 0.0 | 0.00 | 0.00 | 0.00 | 53 | 1018.9 | |
| 20260905183731 | 30 | 0.0 | 0.0 | 0.00 | 0.00 | 0.00 | 53 | 1018.7 | |
| 20260905181727 | 30 | 0.0 | 0.0 | 0.00 | 0.00 | 0.00 | 54 | 1018.5 | |
| 20260905175724 | 30 | 0.0 | 0.0 | 0.00 | 0.00 | 0.00 | 53 | 1018.4 | |
| 20260905174953 | 30 | 0.0 | 0.0 | 0.00 | 0.00 | 0.00 | 53 | 1018.3 | |
| 20260905172949 | 30 | 0.0 | 0.0 | 0.00 | 0.00 | 0.00 | 52 | 1018.3 | |
| 20260905170946 | 30 | 0.0 | 0.0 | 0.00 | 0.00 | 0.00 | 50 | 1018.1 | |
| 20260905164942 | 31 | 0.0 | 0.0 | 0.00 | 0.00 | 0.00 | 48 | 1018.0 | |
| 20260905162939 | 31 | 0.0 | 0.0 | 0.00 | 0.00 | 0.00 | 45 | 1018.0 | |
| 20260905160936 | 32 | 0.0 | 0.0 | 0.00 | 0.00 | 0.00 | 43 | 1018.0 | |
| 20260905154932 | 33 | 0.0 | 0.0 | 0.00 | 0.00 | 0.00 | 40 | 1017.9 | |
| 20260905152928 | 36 | 0.0 | 0.0 | 0.00 | 0.00 | 0.00 | 38 | 1018.0 | |
| 20260905150925 | 37 | 0.0 | 0.0 | 0.00 | 0.00 | 0.00 | 35 | 1017.8 | |
| 20260905144921 | 41 | 0.0 | 0.0 | 0.00 | 0.00 | 0.00 | 32 | 1017.8 | |
| 20260905142919 | 42 | 0.0 | 0.0 | 0.00 | 0.00 | 0.00 | 32 | 1017.9 | |
| 20260905140915 | 42 | 0.0 | 0.0 | 0.00 | 0.00 | 0.00 | 33 | 1017.9 | |
| 20260905134911 | 41 | 0.0 | 0.0 | 0.00 | 0.00 | 0.00 | 33 | 1018.0 | |
| 20260905132908 | 41 | 0.0 | 0.0 | 0.00 | 0.00 | 0.00 | 34 | 1018.2 | |
| 20260905130904 | 41 | 0.0 | 0.0 | 0.00 | 0.00 | 0.00 | 35 | 1018.3 | |
| 20260905124901 | 40 | 0.0 | 0.0 | 0.00 | 0.00 | 0.00 | 36 | 1018.5 | |
| 20260905122857 | 37 | 0.0 | 0.0 | 0.00 | 0.00 | 0.00 | 38 | 1018.6 | |
| 20260905120854 | 36 | 0.0 | 0.0 | 0.00 | 0.00 | 0.00 | 41 | 1018.9 | |
| 20260905114850 | 33 | 0.0 | 0.0 | 0.00 | 0.00 | 0.00 | 43 | 1019.0 | |
| 20260905112847 | 32 | 0.0 | 0.0 | 0.00 | 0.00 | 0.00 | 44 | 1019.1 | |
| 20260905110843 | 32 | 0.0 | 0.0 | 0.00 | 0.00 | 0.00 | 45 | 1019.0 | |
| 20260905104840 | 32 | 0.0 | 0.0 | 0.00 | 0.00 | 0.00 | 45 | 1019.1 | |
| 20260905100833 | 31 | 0.0 | 0.0 | 0.00 | 0.00 | 0.00 | 46 | 1019.1 | |
| 20260905094829 | 31 | 0.0 | 0.0 | 0.00 | 0.00 | 0.00 | 47 | 1019.1 | |
| 20260905092826 | 31 | 0.0 | 0.0 | 0.00 | 0.00 | 0.00 | 49 | 1019.1 | |
| 20260905090823 | 31 | 0.0 | 0.0 | 0.00 | 0.00 | 0.00 | 51 | 1019.2 | |
| 20260905084819 | 30 | 0.0 | 0.0 | 0.00 | 0.00 | 0.00 | 55 | 1019.3 | |
| 20260905082816 | 29 | 0.0 | 0.0 | 0.00 | 0.00 | 0.00 | 57 | 1019.2 | |
| 20260905080812 | 29 | 0.0 | 0.0 | 0.00 | 0.00 | 0.00 | 57 | 1019.2 |